Location: Unspecified
(0.0000°N, 0.0000°E)
Time: 18:21:36
(UTC+00:00)

STARLINK 1053 - Pass Details

Date: 18 January 2020
Orbit: 548 x 551 km, 53.0° (Epoch: 17 January)

Event Time Altitude Azimuth Distance (km) Brightness Sun altitude
Rises 05:28:00 0° 190° (S) 2,714 7.3 -9.9°
Reaches altitude 10° 05:30:41 10° 173° (S) 1,818 6.7 -9.2°
Maximum altitude 05:33:47 20° 125° (SE) 1,287 6.7 -8.5°
Drops below altitude 10° 05:36:51 10° 76° (ENE) 1,812 7.2 -7.8°
Sets 05:39:31 0° 59° (ENE) 2,702 7.8 -7.2°
